CST,Max TemperatureF,Mean TemperatureF,Min TemperatureF,Max Dew PointF,MeanDew PointF,Min DewpointF,Max Humidity, Mean Humidity, Min Humidity, Max Sea Level PressureIn, Mean Sea Level PressureIn, Min Sea Level PressureIn, Max VisibilityMiles, Mean VisibilityMiles, Min VisibilityMiles, Max Wind SpeedMPH, Mean Wind SpeedMPH, Max Gust SpeedMPH,PrecipitationIn, CloudCover, Events, WindDirDegrees
2013-1-1,14,4,-5,9,-2,-15,85,71,56,30.14,30.03,29.92,10,9,4,18,8,24,0.00,4,Snow,261
2013-1-2,19,16,12,14,12,7,86,79,74,29.96,29.91,29.87,10,6,2,8,3,,0.00,8,Snow,222
2013-1-3,21,16,10,16,7,3,80,65,46,30.09,29.97,29.80,10,10,4,17,6,23,0.00,2,Snow,263
2013-1-4,33,22,10,19,13,5,86,70,52,30.07,29.92,29.82,10,10,10,13,7,20,0.00,0,,266
2013-1-5,28,17,6,19,15,1,86,75,64,30.05,29.91,29.81,10,10,10,8,4,,0.00,5,,25
2013-1-6,23,14,6,16,9,3,85,71,54,30.11,30.03,29.91,10,10,10,9,3,16,0.00,3,,288
2013-1-7,39,24,10,23,16,5,80,68,49,29.91,29.75,29.65,10,10,10,18,7,29,0.00,0,,235
2013-1-8,32,21,10,25,18,7,86,80,69,29.94,29.82,29.63,10,10,0,15,5,22,0.00,3,Fog,241
2013-1-9,32,24,17,25,19,10,80,69,60,30.27,29.97,29.66,10,10,2,23,10,41,0.00,5,Snow,262
2013-1-10,41,28,15,27,18,10,86,66,42,30.28,30.07,29.73,10,9,3,13,2,18,0.27,2,Rain,151
2013-1-11,35,34,32,30,29,27,87,81,80,29.72,29.50,29.30,2,1,0,8,3,,0.46,8,Fog-Rain-Snow,93
2013-1-12,37,22,6,34,14,-2,87,74,62,29.95,29.62,29.25,10,8,0,18,8,30,0.07,7,Rain-Snow,256
2013-1-13,8,4,1,1,-3,-6,78,70,61,30.07,29.99,29.93,10,8,1,9,4,17,0.00,5,Snow,291
2013-1-14,10,5,0,-2,-4,-8,78,67,52,30.25,30.20,30.07,10,10,4,12,6,16,0.00,3,,265
2013-1-15,21,12,3,10,5,-2,85,68,58,30.20,29.99,29.64,10,9,2,18,6,26,0.00,5,Snow,220
2013-1-16,24,11,-2,19,6,-15,86,64,45,30.17,29.73,29.45,10,9,1,21,11,30,0.00,4,Snow,282
2013-1-17,8,-2,-11,-8,-12,-18,77,62,48,30.29,30.24,30.17,10,10,7,9,3,16,0.00,3,,281
2013-1-18,19,10,0,14,8,-9,86,78,66,30.21,29.88,29.69,10,5,0,7,2,,0.18,8,Snow,93
2013-1-19,26,12,-2,21,8,-13,86,75,60,30.01,29.69,29.49,10,5,0,18,4,33,0.13,7,Snow,290
2013-1-20,1,-5,-11,-11,-16,-20,71,64,55,30.22,30.14,30.02,10,10,7,15,8,25,0.00,0,,284
2013-1-21,-11,-17,-23,-20,-27,-31,70,59,49,30.14,30.10,30.06,10,9,5,14,8,24,0.00,3,,284
2013-1-22,0,-12,-23,-15,-22,-33,65,59,49,30.22,30.17,30.09,10,10,10,12,4,16,0.00,0,,261
2013-1-23,5,-4,-14,-8,-16,-26,77,62,46,30.53,30.17,30.01,10,8,2,16,6,25,0.00,4,Snow,296
2013-1-24,6,-10,-25,0,-16,-35,78,65,45,30.58,30.44,30.12,10,9,1,10,4,,0.01,3,Snow,226
2013-1-25,15,8,1,3,1,-6,79,68,53,30.17,29.97,29.83,10,7,0,10,6,16,0.06,5,Snow,294
2013-1-26,17,3,-11,9,0,-18,78,70,62,30.29,30.21,30.12,10,10,2,9,4,,0.00,4,Snow,186
2013-1-27,28,14,0,25,12,-6,86,75,64,30.12,29.97,29.82,10,9,2,12,3,,0.00,4,Snow,66
2013-1-28,28,26,23,25,23,18,86,83,80,29.86,29.80,29.67,10,7,2,7,2,,0.03,8,Snow,106
2013-1-29,33,27,21,27,23,14,86,78,69,29.71,29.58,29.47,10,8,0,10,4,17,0.02,8,Fog-Rain-Snow,341
2013-1-30,21,13,5,16,4,-6,80,68,53,29.70,29.59,29.54,10,10,4,13,5,23,0.00,6,Snow,329
2013-1-31,5,-2,-9,-6,-9,-18,72,63,52,30.07,29.82,29.59,10,9,3,14,6,22,0.00,5,Snow,309